Weather observations for the past three days for
Rochester - Skyhaven Airport
Imperial (Metric)
Date Time (edt) Wind (mph) Vis. (mi.) Weather Sky Cond. Temperature (ºF) Relative Humidity Wind Chill (°F) Heat Index (°F) Pressure Precipitation (in)
Air Dwpt 6 hour altimeter (in) sea level (mb) 1 hr 3 hr 6 hr
Max. Min.
22 22:51 Calm 10.00 Fair CLR 72 66 82% 30.04 1016.8
22 21:51 Calm 10.00 Fair CLR 73 66 79% 30.05 1016.9
22 20:51 Calm 10.00 Fair CLR 73.9 66 76% 30.03 1016.5
22 19:51 SE 5 10.00 NULL NULL 75.9 64.9 89.1 75.9 69% 78 30.02 1016.1
22 18:51 Calm 10.00 Mostly Cloudy FEW060 SCT075 BKN090 79 64.9 62% 81 30.02 1016.3
22 17:51 SE 7 10.00 A Few Clouds FEW095 80.1 63 56% 81 30.02 1016.3
22 16:51 Vrbl 7 10.00 Fair CLR 84.9 61 45% 85 30.03 1016.4
22 15:51 Vrbl 6 10.00 Fair CLR 86 60.1 42% 86 30.04 1016.7
22 14:51 S 9 G 16 10.00 A Few Clouds FEW070 88 60.1 39% 88 30.04 1016.7
22 13:51 S 8 10.00 Mostly Cloudy BKN060 88 59 89.1 73 38% 87 30.06 1017.3
22 12:51 Calm 10.00 A Few Clouds FEW055 87.1 57.9 37% 86 30.06 1017.6
22 11:51 Calm 10.00 Partly Cloudy SCT060 84.9 57 39% 84 30.09 1018.5
22 10:51 Vrbl 3 10.00 Fair CLR 82.9 57 41% 82 30.1 1018.7
22 09:51 S 5 10.00 A Few Clouds FEW060 81 57 44% 81 30.1 1018.9
22 08:51 S 5 10.00 Fair CLR 78.1 55.9 47% 79 30.11 1019.0
22 07:51 Calm 10.00 Fair CLR 73.9 57.9 73.9 60.1 57% 30.11 1018.9
22 06:51 NW 5 10.00 Fair CLR 64 55.9 75% 30.09 1018.6
22 05:51 Calm 10.00 A Few Clouds FEW050 61 55 81% 30.09 1018.4
22 04:51 NW 3 10.00 Partly Cloudy SCT060 62.1 55 78% 30.08 1018.1
22 03:51 NW 3 10.00 Partly Cloudy SCT065 63 55 76% 30.08 1018.1
22 02:51 NW 5 10.00 Partly Cloudy SCT065 62.1 54 75% 30.07 1017.9
22 01:51 Calm 10.00 Partly Cloudy SCT070 63 55 78.1 62.1 76% 30.08 1018.0
22 00:51 Calm 10.00 Mostly Cloudy BKN070 63 55 76% 30.07 1017.8
21 23:51 Calm 10.00 A Few Clouds FEW065 64.9 54 68% 30.06 1017.4
21 22:51 Calm 10.00 Fair CLR 66 54 65% 30.05 1017.1
21 21:51 NW 5 10.00 Fair CLR 70 53.1 55% 30.04 1016.8
21 20:51 Calm 10.00 Fair CLR 73 54 51% 30.02 1016.2
21 19:51 NW 3 10.00 Fair CLR 78.1 52 86 77 40% 79 30.01 1015.6
21 18:51 NW 7 10.00 Fair CLR 82 53.1 37% 81 30 1015.3
21 17:51 N 12 G 17 10.00 Mostly Cloudy BKN065 84 55 37% 83 29.98 1014.9
21 16:51 NW 12 10.00 Mostly Cloudy BKN070 82.9 55.9 40% 82 29.98 1014.7
21 15:51 NW 7 10.00 Mostly Cloudy FEW050 BKN075 82.9 60.1 46% 83 29.98 1014.7
21 14:51 W 8 G 18 10.00 A Few Clouds FEW047 86 60.1 42% 86 29.98 1014.9
21 13:51 N 10 G 18 10.00 Partly Cloudy SCT045 84.9 61 87.1 73.9 45% 85 29.98 1014.9
21 12:51 NW 12 G 16 10.00 Overcast FEW046 BKN075 OVC100 84 60.1 44% 84 29.98 1014.7
21 11:51 NW 7 10.00 Mostly Cloudy SCT041 SCT049 BKN060 82 61 49% 83 29.98 1014.7
21 10:51 Vrbl 3 10.00 A Few Clouds FEW039 81 61 51% 82 29.98 1014.9
21 09:51 W 6 10.00 Fair CLR 81 62.1 53% 82 29.99 1015.0
21 08:51 NW 10 10.00 Fair CLR 78.1 61 56% 80 29.99 1015.0
21 07:51 NW 3 10.00 Fair CLR 73.9 60.1 73.9 66 62% 29.99 1015.2
21 06:51 N 3 10.00 NULL NULL 69.1 60.1 73% 29.99 1014.9
21 05:51 Vrbl 5 10.00 Fair CLR 69.1 57.9 68% 29.97 1014.4
21 04:51 Vrbl 3 10.00 Fair CLR 69.1 60.1 73% 29.96 1013.9
21 03:51 Calm 10.00 Fair CLR 68 62.1 81% 29.95 1013.6
21 02:51 Calm 10.00 Fair CLR 68 61 78% 29.95 1013.8
21 01:51 Calm 10.00 Fair CLR 71.1 63 82 68 76% 29.96 1013.9
21 00:51 Calm 10.00 Fair CLR 72 62.1 71% 29.96 1014.1
20 23:51 Calm 10.00 Fair CLR 73 61 66% 29.97 1014.4
20 22:51 Calm 10.00 Fair CLR 73.9 61 64% 29.98 1014.7
20 21:51 Calm 10.00 Fair CLR 77 60.1 56% 79 29.98 1014.7
20 20:51 Calm 10.00 Fair CLR 78.1 60.1 54% 79 29.98 1014.6
20 19:51 Calm 10.00 A Few Clouds FEW070 82 59 89.1 82 46% 82 29.97 1014.3
20 18:51 Vrbl 3 10.00 Fair CLR 84.9 57.9 40% 84 29.96 1014.1
20 17:51 Vrbl 3 10.00 Fair CLR 86 55.9 36% 85 29.96 1014.1
20 16:51 Calm 10.00 Fair CLR 88 57 35% 87 29.98 1014.7
20 15:51 Vrbl 6 10.00 Fair CLR 88 55.9 34% 86 29.99 1015.0
20 14:51 Vrbl 6 10.00 Fair CLR 84.9 55 36% 84 30.01 1015.9
20 13:51 Vrbl 6 G 17 10.00 A Few Clouds FEW060 86 55.9 87.1 73 36% 85 30.03 1016.5
20 12:51 Vrbl 7 10.00 Partly Cloudy SCT050 84.9 57.9 40% 84 30.04 1017.0
20 11:51 Vrbl 7 10.00 A Few Clouds FEW050 82.9 57.9 43% 83 30.06 1017.4
20 10:51 NW 8 10.00 Fair CLR 82 55.9 41% 82 30.07 1017.6
20 09:51 NW 9 10.00 Fair CLR 80.1 57 45% 80 30.07 1017.8
20 08:51 SW 5 10.00 Fair CLR 75.9 61 60% 78 30.09 1018.4
20 07:51 Calm 10.00 Fair CLR 73 59 73 57.9 62% 30.09 1018.5
20 06:51 Calm 10.00 Fair CLR 66 57.9 75% 30.08 1018.3
20 05:51 Calm 10.00 Fair CLR 60.1 55 84% 30.08 1018.2
20 04:51 NW 3 10.00 A Few Clouds FEW065 60.1 55 84% 30.08 1018.1
20 03:51 NW 3 10.00 Fair CLR 61 55 81% 30.08 1018.1
20 02:51 NW 6 10.00 Fair CLR 60.1 55 84% 30.08 1018.3
20 01:51 NW 6 10.00 A Few Clouds FEW070 62.1 55.9 78.1 62.1 80% 30.08 1018.1
20 00:51 Calm 10.00 A Few Clouds FEW070 63 57 81% 30.08 1018.3
19 23:51 Calm 10.00 A Few Clouds FEW070 66 59 78% 30.08 1018.2
Date Time (edt) Wind (mph) Vis. (mi.) Weather Sky Cond. Air Dwpt Max. Min. Relative Humidity Wind Chill (°F) Heat Index (°F) altimeter (in) sea level (mb) 1 hr 3 hr 6 hr
6 hour
Temperature (ºF) Pressure Precipitation (in)